Regional Weather Roundup
Issued by NWS

Home | Current Version | Previous Version | Text Only | Print | Product List | Glossary On
Versions: 1 2 3 4 5 6 7 8 9 10 11 12 13 14 15 16 17 18 19 20 21 22 23 24 25 26 27 28 29 30 31 32 33 34 35 36 37 38 39 40 41 42 43 44 45 46 47 48 49 50
000
ASUS43 KMKX 022121
RWRWI

WISCONSIN REGIONAL WEATHER ROUNDUP
NATIONAL WEATHER SERVICE MILWAUKEE/SULLIVAN WI
400 PM CDT WED SEP 02 2015

NOTE: "FAIR" INDICATES FEW OR NO CLOUDS BELOW 12,000 FEET WITH NO
SIGNIFICANT WEATHER AND/OR OBSTRUCTIONS TO VISIBILITY.

WIZ001-002-006>008-014>016-023>028-022200-
NORTHWEST WISCONSIN

CITY           SKY/WX    TMP DP  RH WIND       PRES   REMARKS
SUPERIOR ARPT  PTSUNNY   69  64  83 E9G16     29.95F
ASHLAND        CLOUDY    73  68  84 N5        29.95F
HAYWARD        FAIR      73  65  75 SE7       29.95F
SIREN          PTSUNNY   75  66  73 SE9       29.93S
CUMBERLAND     CLOUDY    68  64  88 SE7       29.95F
RICE LAKE      CLOUDY    68  65  90 SE5       29.96F
CHETEK         LGT RAIN N/A N/A N/A MISG      29.94F
LADYSMITH      FAIR      67  66  94 CALM      29.95F
EAU CLAIRE     CLOUDY    69  67  93 E7        29.92F
MENOMONIE      PTSUNNY   72  68  88 NE7       29.92F
NEW RICHMOND   CLOUDY    68  67  98 E9        29.93F
OSCEOLA        CLOUDY    69  69 100 E8        29.95F
$$

WIZ003>005-009-010-017-018-022200-
NORTH CENTRAL WISCONSIN

CITY           SKY/WX    TMP DP  RH WIND       PRES   REMARKS
MANITOWISH WTR CLOUDY    69  68  96 CALM      29.96F
ARBOR VITAE    PTSUNNY   69  68  94 CALM      29.96F
WOODRUFF       PTSUNNY   69  68  94 CALM      29.96F
RHINELANDER    FAIR      71  68  90 E12       29.96F
EAGLE RIVER    DRIZZLE   69  68  97 CALM      29.96F
LAND O LAKES   PTSUNNY   70  67  89 E5        29.98F
PHILLIPS       PTSUNNY   67  66  96 CALM      29.95F
TOMAHAWK       FAIR      68  66  94 E5        29.95F
MEDFORD        CLOUDY    67  67  99 E5        29.93S THUNDER
MERRILL        FAIR      71  69  94 E9        29.93F
$$

WIZ029-030-035-036-043>047-022200-
CENTRAL WISCONSIN

CITY           SKY/WX    TMP DP  RH WIND       PRES   REMARKS
WAUSAU         FAIR      74  69  85 E7        29.92F
MOSINEE        MOSUNNY   77  72  83 NE7       29.95F
MARSHFIELD     FAIR      81  68  64 W3        29.94S HX  84
STEVENS POINT  FAIR      84  66  55 SW7       29.94S HX  86
WAUPACA        FAIR      89  65  45 S8        29.93F HX  91
WAUTOMA        FAIR      89  69  51 S12       29.93F HX  93
WISC RAPIDS    FAIR      85  65  51 SW13G20   29.94F HX  86
CAMP DOUGLAS   MOSUNNY   86  70  58 SW7       29.92F HX  90
$$

WIZ011>013-019>022-031-037>040-048>050-022200-
NORTHEAST WISCONSIN

CITY           SKY/WX    TMP DP  RH WIND       PRES   REMARKS
ANTIGO         PTSUNNY   69  68  96 SE12      29.97F
SHAWANO        PTSUNNY   78  69  73 N13       29.96R HX  80
OCONTO         CLOUDY    71  71 100 N12G26    29.94R
STURGEON BAY   CLOUDY    72  66  83 E7        29.97R
GREEN BAY      FAIR      87  70  56 S9        29.93F HX  92
MANITOWOC      FAIR      87  69  54 MISG      29.94F HX  91
APPLETON       MOSUNNY   86  64  48 S14       29.92F HX  87
CLINTONVILLE   FAIR      86  64  48 N10G16    29.94R HX  87
OSHKOSH        FAIR      85  68  56 S12G22    29.93F HX  88
$$

WIZ032>034-041-042-053>061-022200-
SOUTHWEST WISCONSIN

CITY           SKY/WX    TMP DP  RH WIND       PRES   REMARKS
LA CROSSE      CLOUDY    84  68  58 S9        29.90F HX  87
SPARTA         PTSUNNY   83  64  51 S7        29.92F HX  85
VIROQUA          N/A     82  67  60 S8        29.95F HX  84
BOSCOBEL       FAIR      88  67  49 S7        29.93F HX  91
PRAIRIE DU CHI CLOUDY    83  65  54 S7        29.92S HX  85
PLATTEVILLE    FAIR      81  72  73 S8        29.96F HX  86
$$

WIZ056-057-062-063-064-067-068-022200-
SOUTH CENTRAL WISCONSIN

CITY           SKY/WX    TMP DP  RH WIND       PRES   REMARKS
REEDSBURG      FAIR      86  66  52 SW13G18   29.94F HX  88
BARABOO/DELLS  FAIR      86  64  46 SW10      29.95F HX  87
LONE ROCK      FAIR      85  66  53 SW10      29.94F HX  87
MINERAL POINT  FAIR      82  68  61 S9        29.97F HX  85
MADISON        PTSUNNY   84  67  56 S13       29.95F HX  86
MIDDLETON      FAIR      86  66  52 SW12      29.97F HX  88
WATERTOWN      FAIR      84  70  63 SW10      29.96F HX  89
MONROE         FAIR      82  68  61 SW14      29.98F HX  85
JANESVILLE     MOSUNNY   86  70  58 SW12G17   29.97F HX  90
$$

WIZ051-052-058>065-066-070>072-022200-
SOUTHEAST WISCONSIN

CITY           SKY/WX    TMP DP  RH WIND       PRES   REMARKS
MILWAUKEE      PTSUNNY   87  68  52 SW12      29.95F HX  90
WAUKESHA       SUNNY     82  68  61 SW8       29.98F HX  85
MILWAUKEE/TIMM SUNNY     86  64  48 SW9       29.96F HX  87
RACINE         FAIR      88  67  49 SW10      29.97F HX  91
BURLINGTON     FAIR      85  67  55 SW7       29.97F HX  88
KENOSHA        FAIR      88  69  53 SW8       29.97F HX  92
FOND DU LAC    FAIR      84  70  62 SW8       29.94F HX  88
SHEBOYGAN      FAIR      84  69  60 SW8       29.94F HX  88
WEST BEND      FAIR      82  66  57 SW8       29.96F HX  85
JUNEAU         FAIR      83  70  64 SW9       29.97F HX  87
$$

LSZ147-162-022200-
LAKE SUPERIOR

STATION/POSITION TIME  TEMP    WIND        PRES    WAVE
                       AIR SEA DIR/SP/G            HT/PER
                 (UTC) (F)     (DEG/KT/KT) (MB)    (FT/S)
W MID LAKE BUOY  2050   58 56   70/  8/  8 1014.3F   0
DEVILS ISLAND    2100   62      60/  4/  5 1014.4F
PORT WING        2000   65      40/ 13/ 18 1014.9R
SAXON HARBOR     2000   74      CALM  /  5 1012.9F
$$

LMZ867-665-643>646-022200-
LAKE MICHIGAN

STATION/POSITION TIME  TEMP    WIND        PRES    WAVE
                       AIR SEA DIR/SP/G            HT/PER
                 (UTC) (F)     (DEG/KT/KT) (MB)    (FT/S)
CHAMBERS ISLAND  2000   71     360/  5/ 11 1013.9F
S GREEN BAY BUOY 2100   75 69  150/ 10/ 16 1014.9
N MID LAKE BUOY  2050   69 66   90/  8/ 10 1013.6F   1/ 3
NORTHPORT PIER   2000   70     150/  3/  5 1014.2F
SISTER BAY       2019   83     140/  8/ 12   N/A
ALGOMA LAKESHORE 2014           60/ 16/ 18   N/A
KEWAUNEE LAKESHO 2100   61     160/  6/  7 1012.8F
SHEBOYGAN LAKESH 2100   77     180/ 13/ 13 1013.6F
PORT WASHINGTON  2000   71      CALM  /  6 1015.6F
ATWATER BUOY     2100   62     130/  8/ 12 1015.4F
MILWAUKEE LAKESH 2110   86     210/ 14/ 16   N/A
S MID LAKE BUOY  2050   74 72  170/  8/  8 1014.5F   1
KENOSHA   LAKESH 2100   68     170/ 10/ 13 1014.2F
$$

TC  - TEMPERATURE IN CELSIUS
VSB - VISIBILITY IN STATUTE MILES
WCI - WIND CHILL INDEX
HX  - HEAT INDEX



USA.gov is the U.S. government's official web portal to all federal, state and local government web resources and services.